Location: Lake Arresoe
(56.0000°N, 12.5000°E)
Time: 09:38:37
(UTC+02:00)

Resurs 1-4 Rocket - Pass Details

Date: 21 August 2020
Orbit: 799 x 815 km, 98.6° (Epoch: 23 September)

Event Time Altitude Azimuth Distance (km) Brightness Sun altitude
Rises 01:03:02 0° 28° (NNE) 3,327 6.3 -21.9°
Reaches altitude 10° 01:07:08 10° 59° (ENE) 2,387 4.9 -22.0°
Maximum altitude 01:09:04 12° 81° (E) 2,249 4.5 -22.0°
Drops below altitude 10° 01:10:59 10° 103° (ESE) 2,379 4.4 -22.0°
Enters shadow 01:11:36 - 109° (ESE) 2,471 4.4 -22.0°
